TimeEST,TemperatureF,Dew PointF,Humidity,Sea Level PressureIn,VisibilityMPH,Wind Direction,Wind SpeedMPH,Gust SpeedMPH,PrecipitationIn,Events,Conditions,WindDirDegrees,DateUTC
12:15 AM,50.0,49.3,97,29.98,7.0,Calm,Calm,-,N/A,,Drizzle,0,2013-01-17 05:15:00
12:35 AM,50.2,49.5,97,29.98,5.0,Calm,Calm,-,N/A,,Drizzle,0,2013-01-17 05:35:00
12:55 AM,50.2,49.6,98,29.98,5.0,Calm,Calm,-,0.01,,Heavy Drizzle,0,2013-01-17 05:55:00
1:15 AM,50.2,49.6,98,29.98,4.0,Calm,Calm,-,0.03,Rain,Rain,0,2013-01-17 06:15:00
1:35 AM,50.4,50.0,99,29.98,7.0,Calm,Calm,-,0.04,Rain,Light Rain,0,2013-01-17 06:35:00
1:55 AM,50.4,50.0,99,29.98,7.0,Calm,Calm,-,0.04,Rain,Rain,0,2013-01-17 06:55:00
2:15 AM,50.5,50.0,98,29.98,4.0,Calm,Calm,-,N/A,,Drizzle,0,2013-01-17 07:15:00
2:35 AM,50.5,50.0,98,29.98,7.0,Calm,Calm,-,0.01,,Drizzle,0,2013-01-17 07:35:00
2:55 AM,50.7,50.0,97,29.98,5.0,Calm,Calm,-,0.01,Rain,Heavy Rain,0,2013-01-17 07:55:00
3:15 AM,50.5,50.0,98,29.97,7.0,Calm,Calm,-,0.01,,Light Drizzle,0,2013-01-17 08:15:00
3:55 AM,50.4,50.0,99,29.96,10.0,NNE,4.6,-,0.01,,Overcast,30,2013-01-17 08:55:00
4:15 AM,50.4,50.0,99,29.96,7.0,Calm,Calm,-,N/A,,Drizzle,0,2013-01-17 09:15:00
4:35 AM,50.4,50.0,99,29.96,5.0,NNE,3.5,-,0.01,,Drizzle,20,2013-01-17 09:35:00
4:55 AM,50.4,50.0,99,29.96,3.0,Calm,Calm,-,0.07,Rain,Heavy Rain,0,2013-01-17 09:55:00
5:15 AM,50.4,50.0,99,29.98,7.0,North,6.9,-,0.05,Rain,Rain,350,2013-01-17 10:15:00
5:35 AM,50.4,50.0,99,29.97,7.0,NNE,10.4,-,0.09,Rain,Rain,20,2013-01-17 10:35:00
5:55 AM,50.4,50.0,99,29.97,10.0,NNE,8.1,-,0.10,,Drizzle,20,2013-01-17 10:55:00
6:15 AM,50.2,49.6,98,29.98,7.0,NNE,6.9,-,0.01,,Drizzle,20,2013-01-17 11:15:00
6:35 AM,50.2,49.6,98,29.99,5.0,NNE,6.9,-,0.02,,Drizzle,20,2013-01-17 11:35:00
6:55 AM,50.0,49.3,97,29.99,7.0,NNE,6.9,-,0.02,,Light Drizzle,30,2013-01-17 11:55:00
7:15 AM,50.0,49.3,97,30.00,7.0,NNE,5.8,-,N/A,,Light Drizzle,20,2013-01-17 12:15:00
7:35 AM,50.0,49.3,97,30.01,5.0,North,5.8,-,0.01,,Heavy Drizzle,10,2013-01-17 12:35:00
7:55 AM,50.0,49.3,97,30.01,5.0,NNE,4.6,-,0.01,,Heavy Drizzle,30,2013-01-17 12:55:00
8:15 AM,50.0,49.3,97,30.01,5.0,North,3.5,-,0.01,,Drizzle,360,2013-01-17 13:15:00
8:35 AM,50.2,49.5,97,30.02,5.0,North,4.6,-,0.01,Rain,Light Rain,10,2013-01-17 13:35:00
8:55 AM,50.2,49.5,97,30.03,7.0,North,8.1,-,0.01,,Drizzle,360,2013-01-17 13:55:00
9:15 AM,50.2,49.5,97,30.04,4.0,North,6.9,-,0.02,Rain,Rain,360,2013-01-17 14:15:00
9:35 AM,50.0,49.3,97,30.03,7.0,North,6.9,-,0.02,,Drizzle,10,2013-01-17 14:35:00
10:15 AM,50.4,49.6,97,30.03,10.0,North,8.1,-,N/A,,Light Drizzle,360,2013-01-17 15:15:00
10:55 AM,50.4,49.6,97,30.01,7.0,NNE,6.9,-,N/A,,Drizzle,30,2013-01-17 15:55:00
11:15 AM,50.4,49.6,97,30.00,10.0,NE,4.6,-,0.01,,Drizzle,50,2013-01-17 16:15:00
11:35 AM,50.5,49.6,97,29.99,5.0,NNE,5.8,17.3,0.02,Rain,Light Rain,30,2013-01-17 16:35:00
11:55 AM,50.7,49.8,97,29.98,10.0,Calm,Calm,-,0.02,Rain,Rain,0,2013-01-17 16:55:00
12:15 PM,50.5,49.5,96,29.96,10.0,NNE,8.1,-,N/A,,Overcast,20,2013-01-17 17:15:00
12:35 PM,50.4,49.3,96,29.95,7.0,Calm,Calm,-,N/A,Rain,Light Rain,0,2013-01-17 17:35:00
12:55 PM,50.4,49.3,96,29.93,10.0,NE,5.8,-,N/A,,Overcast,40,2013-01-17 17:55:00
1:15 PM,50.5,49.5,96,29.93,4.0,NNE,9.2,-,N/A,,Light Drizzle,20,2013-01-17 18:15:00
1:35 PM,50.4,49.3,96,29.93,4.0,NNE,6.9,-,0.01,,Heavy Drizzle,30,2013-01-17 18:35:00
1:55 PM,50.2,49.1,96,29.91,3.0,NE,8.1,18.4,0.02,Rain,Light Rain,40,2013-01-17 18:55:00
2:15 PM,50.0,48.9,96,29.90,3.0,NE,9.2,-,N/A,Rain,Light Rain,50,2013-01-17 19:15:00
2:35 PM,49.5,48.4,96,29.89,3.0,NE,8.1,-,N/A,,Drizzle,40,2013-01-17 19:35:00
2:55 PM,49.3,48.2,96,29.88,2.5,NE,5.8,-,N/A,,Drizzle,40,2013-01-17 19:55:00
3:15 PM,49.1,48.2,97,29.87,3.0,NE,9.2,-,0.01,,Drizzle,40,2013-01-17 20:15:00
3:35 PM,49.1,48.2,97,29.88,3.0,NNE,6.9,-,0.01,,Drizzle,20,2013-01-17 20:35:00
3:55 PM,49.1,48.2,97,29.88,3.0,NNE,10.4,-,0.01,Rain,Rain,30,2013-01-17 20:55:00
4:15 PM,49.1,48.2,97,29.87,2.5,NNE,13.8,18.4,N/A,,Drizzle,30,2013-01-17 21:15:00
4:35 PM,49.1,48.2,97,29.86,4.0,NE,9.2,18.4,N/A,Rain,Light Rain,50,2013-01-17 21:35:00
4:55 PM,48.4,47.5,97,29.87,3.0,NE,18.4,25.3,0.01,Rain,Rain,50,2013-01-17 21:55:00
5:15 PM,47.3,46.2,96,29.87,4.0,NE,13.8,23.0,N/A,,Drizzle,50,2013-01-17 22:15:00
5:35 PM,46.8,45.5,95,29.89,10.0,NE,12.7,23.0,N/A,Rain,Light Rain,50,2013-01-17 22:35:00
5:55 PM,46.6,45.0,94,29.90,7.0,NNE,13.8,19.6,0.03,Rain,Rain,30,2013-01-17 22:55:00
6:15 PM,45.1,43.3,93,29.91,10.0,NNE,16.1,27.6,0.02,Rain,Light Rain,30,2013-01-17 23:15:00
6:35 PM,44.6,42.8,93,29.91,10.0,NE,15.0,32.2,0.03,Rain,Light Rain,40,2013-01-17 23:35:00
6:55 PM,44.2,42.3,93,29.90,7.0,NE,12.7,20.7,0.04,Rain,Rain,40,2013-01-17 23:55:00
7:15 PM,43.5,41.4,92,29.88,10.0,NNE,19.6,33.4,0.01,Rain,Rain,30,2013-01-18 00:15:00
7:55 PM,41.4,39.2,92,29.97,2.5,NNE,12.7,32.2,0.13,Rain,Heavy Rain,20,2013-01-18 00:55:00
8:15 PM,40.8,38.7,92,30.00,3.0,NNE,11.5,17.3,0.12,Rain,Heavy Rain,20,2013-01-18 01:15:00
8:35 PM,40.1,38.3,93,29.97,10.0,NNE,19.6,28.8,0.16,Rain,Rain,20,2013-01-18 01:35:00
8:55 PM,39.2,37.0,92,30.01,7.0,NNE,25.3,31.1,0.19,Rain,Rain,20,2013-01-18 01:55:00
9:15 PM,38.3,36.0,91,30.02,4.0,NNE,15.0,21.9,0.03,Rain,Rain,20,2013-01-18 02:15:00
9:35 PM,36.0,34.0,93,30.02,2.5,NNE,15.0,20.7,0.06,Rain,Rain,20,2013-01-18 02:35:00
9:55 PM,34.7,33.1,94,30.02,4.0,North,15.0,-,0.08,Rain,Light Rain,10,2013-01-18 02:55:00
10:15 PM,34.7,33.4,95,30.04,7.0,North,6.9,-,0.01,Rain,Light Rain,10,2013-01-18 03:15:00
10:35 PM,35.6,34.5,96,30.07,10.0,North,8.1,-,0.01,Rain,Light Rain,350,2013-01-18 03:35:00
10:55 PM,36.0,34.7,95,30.08,7.0,North,6.9,-,0.01,Rain,Rain,10,2013-01-18 03:55:00